Location: Campillo
(40.8621°N, 4.2488°W)
Time: 21:06:08
(UTC+00:00)

Cosmos 1933 Rocket - Pass Details

Date: 26 September 2021
Orbit: 607 x 629 km, 82.5° (Epoch: 25 October)

Event Time Altitude Azimuth Distance (km) Brightness Sun altitude
Rises 03:18:04 0° 4° (N) 2,900 7.4 -31.8°
Reaches altitude 10° 03:20:38 10° 18° (NNE) 1,993 6.7 -31.3°
Maximum altitude 03:24:18 25° 74° (ENE) 1,254 5.7 -30.7°
Drops below altitude 10° 03:27:58 10° 131° (SE) 1,992 6.4 -30.1°
Sets 03:30:31 0° 144° (SE) 2,897 7.1 -29.7°
